Location: Moscow Mills
(39.6029°N, 81.6257°W)
Time: 16:25:21
(UTC+00:00)

Envisat - Visible Passes

Search period start: 06 October 2024 00:00
Search period end: 16 October 2024 00:00
Orbit: 762 x 764 km, 98.3° (Epoch: 06 October)

Date Brightness Start Highest point End Pass type
(mag) Time Alt. Az. Time Alt. Az. Time Alt. Az.
06 Oct 5.8 07:38:00 10° NE 07:38:51 14° NE 07:38:51 14° NE visible
06 Oct 4.3 09:16:23 10° N 09:18:59 27° NNW 09:18:59 27° NNW visible
07 Oct 4.6 08:38:37 10° NNE 08:40:56 28° NNE 08:40:56 28° NNE visible
07 Oct 5.0 10:20:44 10° NW 10:21:05 10° NW 10:21:05 10° NW visible
08 Oct 5.4 08:01:25 10° NNE 08:02:53 18° NE 08:02:53 18° NE visible
08 Oct 4.6 09:40:54 10° NNW 09:43:02 19° NW 09:43:02 19° NW visible
09 Oct 4.5 09:02:45 10° N 09:04:58 25° N 09:04:58 25° N visible
10 Oct 5.0 08:25:10 10° NNE 08:26:55 22° NNE 08:26:55 22° NNE visible
10 Oct 4.9 10:05:56 10° NNW 10:07:03 13° NW 10:07:03 13° NW visible
11 Oct 5.8 07:48:12 10° NE 07:48:51 13° NE 07:48:51 13° NE visible
11 Oct 4.7 09:27:06 10° N 09:29:00 20° NNW 09:29:00 20° NNW visible
12 Oct 4.8 08:49:09 10° N 08:50:56 22° N 08:50:56 22° N visible
13 Oct 5.4 08:11:46 10° NNE 08:12:52 16° NNE 08:12:52 16° NNE visible
13 Oct 4.9 09:51:46 10° NNW 09:53:00 14° NNW 09:53:00 14° NNW visible
14 Oct 4.8 09:13:21 10° N 09:14:56 19° N 09:14:56 19° N visible
15 Oct 5.2 08:35:37 10° NNE 08:36:52 18° NNE 08:36:52 18° NNE visible
